Time,TemperatureF,DewpointF,PressureIn,WindDirection,WindDirectionDegrees,WindSpeedMPH,WindSpeedGustMPH,Humidity,HourlyPrecipIn,Conditions,Clouds,dailyrainin,SoftwareType,DateUTC
2013-05-06 00:01:00,48.5,39.9,30.11,SW,223,0.0,0.0,72,0.00,,,0.00,Wunderground v.1.15,2013-05-06 04:01:00,
2013-05-06 00:02:00,48.5,39.9,30.11,SW,223,0.0,0.0,72,0.00,,,0.00,Wunderground v.1.15,2013-05-06 04:02:00,
2013-05-06 00:06:00,48.3,40.0,30.11,SW,223,0.0,0.0,73,0.00,,,0.00,Wunderground v.1.15,2013-05-06 04:06:00,
2013-05-06 00:11:00,48.3,40.4,30.11,SW,223,0.0,0.0,74,0.00,,,0.00,Wunderground v.1.15,2013-05-06 04:11:00,
2013-05-06 00:12:00,48.3,40.4,30.11,SW,223,0.0,0.0,74,0.00,,,0.00,Wunderground v.1.15,2013-05-06 04:12:00,
2013-05-06 00:17:00,48.2,40.3,30.11,SW,223,0.0,0.0,74,0.00,,,0.00,Wunderground v.1.15,2013-05-06 04:17:00,
2013-05-06 00:22:00,48.2,40.6,30.11,SW,223,0.0,0.0,75,0.00,,,0.00,Wunderground v.1.15,2013-05-06 04:22:00,
2013-05-06 00:28:00,48.0,40.5,30.11,SW,223,0.0,0.0,75,0.00,,,0.00,Wunderground v.1.15,2013-05-06 04:28:00,
2013-05-06 00:37:00,48.2,41.0,30.11,South,191,0.0,0.0,76,0.00,,,0.00,Wunderground v.1.15,2013-05-06 04:37:00,
2013-05-06 00:51:00,48.3,41.4,30.11,South,191,0.0,0.0,77,0.00,,,0.00,Wunderground v.1.15,2013-05-06 04:51:00,
2013-05-06 00:58:00,48.6,41.7,30.11,WSW,250,0.0,0.0,77,0.00,,,0.00,Wunderground v.1.15,2013-05-06 04:58:00,
2013-05-06 01:06:00,48.8,42.2,30.11,SW,236,0.0,0.0,78,0.00,,,0.00,Wunderground v.1.15,2013-05-06 05:06:00,
2013-05-06 01:12:00,48.8,42.2,30.11,SW,236,0.0,0.0,78,0.00,,,0.00,Wunderground v.1.15,2013-05-06 05:12:00,
2013-05-06 01:18:00,48.9,42.3,30.11,SW,236,0.0,0.0,78,0.00,,,0.00,Wunderground v.1.15,2013-05-06 05:18:00,
2013-05-06 01:27:00,48.8,41.9,30.11,SW,236,0.0,0.0,77,0.00,,,0.00,Wunderground v.1.15,2013-05-06 05:27:00,
2013-05-06 01:36:00,48.5,41.6,30.10,SW,236,0.0,0.0,77,0.00,,,0.00,Wunderground v.1.15,2013-05-06 05:36:00,
2013-05-06 01:42:00,48.3,41.4,30.10,SW,234,0.0,0.0,77,0.00,,,0.00,Wunderground v.1.15,2013-05-06 05:42:00,
2013-05-06 01:48:00,48.2,41.7,30.10,WSW,248,0.0,0.0,78,0.00,,,0.00,Wunderground v.1.15,2013-05-06 05:48:00,
2013-05-06 01:55:00,48.0,41.8,30.10,WSW,248,0.0,0.0,79,0.00,,,0.00,Wunderground v.1.15,2013-05-06 05:55:00,
2013-05-06 02:01:00,47.9,41.7,30.10,WSW,240,0.0,0.0,79,0.00,,,0.00,Wunderground v.1.15,2013-05-06 06:01:00,
2013-05-06 02:08:00,48.0,41.1,30.10,WSW,239,0.0,0.0,77,0.00,,,0.00,Wunderground v.1.15,2013-05-06 06:08:00,
2013-05-06 02:15:00,48.2,40.6,30.10,WSW,246,0.0,0.0,75,0.00,,,0.00,Wunderground v.1.15,2013-05-06 06:15:00,
2013-05-06 02:21:00,48.0,40.5,30.10,WSW,244,0.0,0.0,75,0.00,,,0.00,Wunderground v.1.15,2013-05-06 06:21:00,
2013-05-06 02:27:00,48.0,40.5,30.10,WSW,246,0.0,0.0,75,0.00,,,0.00,Wunderground v.1.15,2013-05-06 06:27:00,
2013-05-06 02:32:00,47.9,40.7,30.09,WSW,246,0.0,0.0,76,0.00,,,0.00,Wunderground v.1.15,2013-05-06 06:32:00,
2013-05-06 02:38:00,47.6,40.7,30.09,WSW,246,0.0,0.0,77,0.00,,,0.00,Wunderground v.1.15,2013-05-06 06:38:00,
2013-05-06 02:46:00,47.3,40.5,30.09,South,178,0.0,0.0,77,0.00,,,0.00,Wunderground v.1.15,2013-05-06 06:46:00,
2013-05-06 02:52:00,47.3,40.8,30.09,SSE,162,0.0,1.0,78,0.00,,,0.00,Wunderground v.1.15,2013-05-06 06:52:00,
2013-05-06 02:57:00,47.3,40.8,30.09,SSW,200,0.0,1.0,78,0.00,,,0.00,Wunderground v.1.15,2013-05-06 06:57:00,
2013-05-06 03:07:00,47.1,40.6,30.09,SSW,205,0.0,0.0,78,0.00,,,0.00,Wunderground v.1.15,2013-05-06 07:07:00,
2013-05-06 03:12:00,47.1,40.9,30.09,SW,234,0.0,1.0,79,0.00,,,0.00,Wunderground v.1.15,2013-05-06 07:12:00,
2013-05-06 03:18:00,47.1,40.9,30.08,South,171,0.0,1.0,79,0.00,,,0.00,Wunderground v.1.15,2013-05-06 07:18:00,
2013-05-06 03:27:00,47.1,40.9,30.08,South,169,0.0,0.0,79,0.00,,,0.00,Wunderground v.1.15,2013-05-06 07:27:00,
2013-05-06 03:35:00,47.0,41.1,30.08,South,171,0.0,0.0,80,0.00,,,0.00,Wunderground v.1.15,2013-05-06 07:35:00,
2013-05-06 03:40:00,47.0,41.1,30.08,South,171,0.0,0.0,80,0.00,,,0.00,Wunderground v.1.15,2013-05-06 07:40:00,
2013-05-06 03:51:00,47.0,41.5,30.08,SW,229,0.0,0.0,81,0.00,,,0.00,Wunderground v.1.15,2013-05-06 07:51:00,
2013-05-06 03:57:00,47.1,41.6,30.08,South,188,0.0,2.0,81,0.00,,,0.00,Wunderground v.1.15,2013-05-06 07:57:00,
2013-05-06 04:06:00,47.1,41.2,30.08,South,188,0.0,0.0,80,0.00,,,0.00,Wunderground v.1.15,2013-05-06 08:06:00,
2013-05-06 04:12:00,47.1,41.6,30.08,SSW,196,0.0,5.0,81,0.00,,,0.00,Wunderground v.1.15,2013-05-06 08:12:00,
2013-05-06 04:18:00,47.3,41.8,30.08,SSW,192,0.0,5.0,81,0.00,,,0.00,Wunderground v.1.15,2013-05-06 08:18:00,
2013-05-06 04:26:00,47.4,41.5,30.08,SSW,192,0.0,0.0,80,0.00,,,0.00,Wunderground v.1.15,2013-05-06 08:26:00,
2013-05-06 04:32:00,47.4,41.5,30.08,SSW,192,0.0,0.0,80,0.00,,,0.00,Wunderground v.1.15,2013-05-06 08:32:00,
2013-05-06 04:37:00,47.6,41.7,30.08,SSW,192,0.0,0.0,80,0.00,,,0.00,Wunderground v.1.15,2013-05-06 08:37:00,
2013-05-06 04:42:00,47.6,41.7,30.08,SSW,192,0.0,0.0,80,0.00,,,0.00,Wunderground v.1.15,2013-05-06 08:42:00,
2013-05-06 04:48:00,47.6,41.7,30.08,SSW,192,0.0,0.0,80,0.00,,,0.00,Wunderground v.1.15,2013-05-06 08:48:00,
2013-05-06 04:58:00,47.4,41.5,30.08,SSW,192,0.0,0.0,80,0.00,,,0.00,Wunderground v.1.15,2013-05-06 08:58:00,
2013-05-06 05:05:00,47.4,41.5,30.08,SSW,192,0.0,0.0,80,0.00,,,0.00,Wunderground v.1.15,2013-05-06 09:05:00,
2013-05-06 05:10:00,47.3,41.8,30.08,SSW,192,0.0,0.0,81,0.00,,,0.00,Wunderground v.1.15,2013-05-06 09:10:00,
2013-05-06 05:17:00,47.3,41.4,30.07,SSW,192,0.0,0.0,80,0.00,,,0.00,Wunderground v.1.15,2013-05-06 09:17:00,
2013-05-06 05:29:00,47.1,41.2,30.07,SSE,151,0.0,1.0,80,0.00,,,0.00,Wunderground v.1.15,2013-05-06 09:29:00,
2013-05-06 05:37:00,47.3,41.4,30.07,South,178,0.0,0.0,80,0.00,,,0.00,Wunderground v.1.15,2013-05-06 09:37:00,
2013-05-06 05:44:00,47.4,41.5,30.07,South,185,0.0,2.0,80,0.00,,,0.00,Wunderground v.1.15,2013-05-06 09:44:00,
2013-05-06 05:49:00,47.4,41.5,30.08,South,186,0.0,2.0,80,0.00,,,0.00,Wunderground v.1.15,2013-05-06 09:49:00,
2013-05-06 05:56:00,47.6,41.7,30.08,South,186,0.0,0.0,80,0.00,,,0.00,Wunderground v.1.15,2013-05-06 09:56:00,
2013-05-06 06:01:00,47.6,41.4,30.08,South,186,0.0,1.0,79,0.00,,,0.00,Wunderground v.1.15,2013-05-06 10:01:00,
2013-05-06 06:07:00,47.6,41.4,30.08,South,186,0.0,1.0,79,0.00,,,0.00,Wunderground v.1.15,2013-05-06 10:07:00,
2013-05-06 06:12:00,47.6,41.4,30.08,South,185,0.0,0.0,79,0.00,,,0.00,Wunderground v.1.15,2013-05-06 10:12:00,
2013-05-06 06:18:00,47.6,41.4,30.08,South,186,0.0,0.0,79,0.00,,,0.00,Wunderground v.1.15,2013-05-06 10:18:00,
2013-05-06 06:27:00,47.7,41.5,30.08,South,186,0.0,0.0,79,0.00,,,0.00,Wunderground v.1.15,2013-05-06 10:27:00,
2013-05-06 06:34:00,47.7,41.5,30.09,South,175,0.0,3.0,79,0.00,,,0.00,Wunderground v.1.15,2013-05-06 10:34:00,
2013-05-06 06:40:00,47.9,41.7,30.09,SSE,147,0.0,0.0,79,0.00,,,0.00,Wunderground v.1.15,2013-05-06 10:40:00,
2013-05-06 06:47:00,47.9,41.7,30.09,South,176,0.0,0.0,79,0.00,,,0.00,Wunderground v.1.15,2013-05-06 10:47:00,
2013-05-06 06:54:00,48.0,41.5,30.09,South,188,0.0,0.0,78,0.00,,,0.00,Wunderground v.1.15,2013-05-06 10:54:00,
2013-05-06 07:00:00,48.0,41.5,30.10,SE,136,0.0,0.0,78,0.00,,,0.00,Wunderground v.1.15,2013-05-06 11:00:00,
2013-05-06 07:06:00,48.2,41.7,30.10,East,79,0.0,0.0,78,0.00,,,0.00,Wunderground v.1.15,2013-05-06 11:06:00,
2013-05-06 07:12:00,48.2,41.7,30.10,SSE,158,0.0,0.0,78,0.00,,,0.00,Wunderground v.1.15,2013-05-06 11:12:00,
2013-05-06 07:18:00,48.3,41.8,30.10,SSE,165,0.0,0.0,78,0.00,,,0.00,Wunderground v.1.15,2013-05-06 11:18:00,
2013-05-06 07:27:00,48.5,42.0,30.10,SSE,158,0.0,2.0,78,0.00,,,0.00,Wunderground v.1.15,2013-05-06 11:27:00,
2013-05-06 07:32:00,48.5,42.0,30.10,SSE,158,0.0,0.0,78,0.00,,,0.00,Wunderground v.1.15,2013-05-06 11:32:00,
2013-05-06 07:37:00,48.6,42.0,30.10,SSE,158,0.0,0.0,78,0.00,,,0.00,Wunderground v.1.15,2013-05-06 11:37:00,
2013-05-06 07:46:00,48.8,42.6,30.10,SSE,158,0.0,0.0,79,0.00,,,0.00,Wunderground v.1.15,2013-05-06 11:46:00,
2013-05-06 07:51:00,48.9,42.7,30.10,South,176,0.0,0.0,79,0.00,,,0.00,Wunderground v.1.15,2013-05-06 11:51:00,
2013-05-06 07:57:00,49.1,42.5,30.10,South,176,0.0,1.0,78,0.00,,,0.00,Wunderground v.1.15,2013-05-06 11:57:00,
2013-05-06 08:02:00,49.2,42.6,30.10,South,176,0.0,0.0,78,0.00,,,0.00,Wunderground v.1.15,2013-05-06 12:02:00,
2013-05-06 08:07:00,49.2,42.6,30.10,East,95,0.0,1.0,78,0.00,,,0.00,Wunderground v.1.15,2013-05-06 12:07:00,
2013-05-06 08:15:00,49.4,42.8,30.10,East,86,0.0,0.0,78,0.00,,,0.00,Wunderground v.1.15,2013-05-06 12:15:00,
2013-05-06 08:20:00,49.5,43.3,30.10,East,86,0.0,0.0,79,0.00,,,0.00,Wunderground v.1.15,2013-05-06 12:20:00,
2013-05-06 08:26:00,49.9,43.6,30.10,SSW,213,0.0,2.0,79,0.00,,,0.00,Wunderground v.1.15,2013-05-06 12:26:00,
2013-05-06 08:32:00,50.4,43.8,30.09,SSW,205,0.0,1.0,78,0.00,,,0.00,Wunderground v.1.15,2013-05-06 12:32:00,
2013-05-06 08:37:00,50.8,43.8,30.09,SSW,196,0.0,1.0,77,0.00,,,0.00,Wunderground v.1.15,2013-05-06 12:37:00,
2013-05-06 08:42:00,51.0,44.0,30.09,SSW,192,0.0,3.0,77,0.00,,,0.00,Wunderground v.1.15,2013-05-06 12:42:00,
2013-05-06 08:48:00,51.3,44.3,30.08,South,185,0.0,3.0,77,0.00,,,0.00,Wunderground v.1.15,2013-05-06 12:48:00,
2013-05-06 08:56:00,51.4,44.4,30.08,South,178,0.0,0.0,77,0.00,,,0.00,Wunderground v.1.15,2013-05-06 12:56:00,
2013-05-06 09:02:00,51.6,44.6,30.09,South,184,1.0,1.0,77,0.00,,,0.00,Wunderground v.1.15,2013-05-06 13:02:00,
2013-05-06 09:07:00,51.7,44.7,30.09,South,184,0.0,1.0,77,0.00,,,0.00,Wunderground v.1.15,2013-05-06 13:07:00,
2013-05-06 09:12:00,51.9,44.9,30.09,South,178,0.0,2.0,77,0.00,,,0.00,Wunderground v.1.15,2013-05-06 13:12:00,
2013-05-06 09:18:00,51.9,44.9,30.09,South,188,0.0,2.0,77,0.00,,,0.00,Wunderground v.1.15,2013-05-06 13:18:00,
2013-05-06 09:25:00,52.0,44.7,30.09,South,175,0.0,3.0,76,0.00,,,0.00,Wunderground v.1.15,2013-05-06 13:25:00,
2013-05-06 09:30:00,52.2,45.2,30.10,South,178,0.0,0.0,77,0.00,,,0.00,Wunderground v.1.15,2013-05-06 13:30:00,
2013-05-06 09:37:00,52.3,45.0,30.10,South,178,0.0,0.0,76,0.00,,,0.00,Wunderground v.1.15,2013-05-06 13:37:00,
2013-05-06 09:45:00,52.3,45.3,30.10,SSW,196,0.0,0.0,77,0.00,,,0.00,Wunderground v.1.15,2013-05-06 13:45:00,
2013-05-06 09:50:00,52.5,45.5,30.10,SSW,209,0.0,0.0,77,0.00,,,0.00,Wunderground v.1.15,2013-05-06 13:50:00,
2013-05-06 09:56:00,52.6,45.6,30.10,SW,227,0.0,0.0,77,0.00,,,0.00,Wunderground v.1.15,2013-05-06 13:56:00,
2013-05-06 10:02:00,52.8,45.8,30.10,SW,222,0.0,0.0,77,0.00,,,0.00,Wunderground v.1.15,2013-05-06 14:02:00,
2013-05-06 10:07:00,52.9,46.2,30.10,SSW,199,0.0,0.0,78,0.00,,,0.00,Wunderground v.1.15,2013-05-06 14:07:00,
2013-05-06 10:12:00,53.1,46.1,30.10,SW,220,0.0,0.0,77,0.00,,,0.00,Wunderground v.1.15,2013-05-06 14:12:00,
2013-05-06 10:18:00,53.2,46.5,30.10,SW,217,0.0,1.0,78,0.00,,,0.00,Wunderground v.1.15,2013-05-06 14:18:00,
2013-05-06 10:26:00,53.3,46.6,30.10,South,181,0.0,2.0,78,0.00,,,0.00,Wunderground v.1.15,2013-05-06 14:26:00,
2013-05-06 10:31:00,53.6,46.6,30.10,WSW,241,0.0,0.0,77,0.00,,,0.00,Wunderground v.1.15,2013-05-06 14:31:00,
2013-05-06 10:37:00,53.6,46.6,30.10,South,178,0.0,0.0,77,0.00,,,0.00,Wunderground v.1.15,2013-05-06 14:37:00,
2013-05-06 10:42:00,53.8,46.8,30.10,South,191,0.0,0.0,77,0.00,,,0.00,Wunderground v.1.15,2013-05-06 14:42:00,
2013-05-06 10:47:00,53.9,46.9,30.10,WSW,243,0.0,0.0,77,0.00,,,0.00,Wunderground v.1.15,2013-05-06 14:47:00,
2013-05-06 10:54:00,54.2,47.8,30.10,WSW,244,0.0,1.0,79,0.00,,,0.00,Wunderground v.1.15,2013-05-06 14:54:00,
2013-05-06 11:00:00,54.2,47.8,30.10,South,172,0.0,3.0,79,0.00,,,0.00,Wunderground v.1.15,2013-05-06 15:00:00,
2013-05-06 11:07:00,54.2,47.8,30.10,South,179,0.0,3.0,79,0.00,,,0.00,Wunderground v.1.15,2013-05-06 15:07:00,
2013-05-06 11:14:00,54.4,48.0,30.10,SW,220,0.0,0.0,79,0.00,,,0.00,Wunderground v.1.15,2013-05-06 15:14:00,
2013-05-06 11:20:00,54.5,48.1,30.10,South,185,0.0,0.0,79,0.00,,,0.00,Wunderground v.1.15,2013-05-06 15:20:00,
2013-05-06 11:27:00,54.7,47.6,30.10,SSW,198,1.0,1.0,77,0.00,,,0.00,Wunderground v.1.15,2013-05-06 15:27:00,
2013-05-06 11:32:00,54.8,47.4,30.09,SSE,147,1.0,1.0,76,0.00,,,0.00,Wunderground v.1.15,2013-05-06 15:32:00,
2013-05-06 11:38:00,55.1,48.0,30.09,SSW,203,0.0,1.0,77,0.00,,,0.00,Wunderground v.1.15,2013-05-06 15:38:00,
2013-05-06 11:47:00,55.6,48.5,30.09,West,275,0.0,0.0,77,0.00,,,0.00,Wunderground v.1.15,2013-05-06 15:47:00,
2013-05-06 11:52:00,55.9,48.4,30.09,West,275,0.0,2.0,76,0.00,,,0.00,Wunderground v.1.15,2013-05-06 15:52:00,
2013-05-06 11:58:00,56.3,48.5,30.09,SSW,202,0.0,2.0,75,0.00,,,0.00,Wunderground v.1.15,2013-05-06 15:58:00,
2013-05-06 12:08:00,56.3,48.5,30.08,WSW,248,1.0,2.0,75,0.00,,,0.00,Wunderground v.1.15,2013-05-06 16:08:00,
2013-05-06 12:15:00,56.2,49.1,30.08,SW,230,1.0,1.0,77,0.00,,,0.00,Wunderground v.1.15,2013-05-06 16:15:00,
2013-05-06 12:21:00,56.3,49.9,30.08,SSW,205,1.0,1.0,79,0.00,,,0.00,Wunderground v.1.15,2013-05-06 16:21:00,
2013-05-06 12:26:00,56.6,50.2,30.08,South,185,1.0,1.0,79,0.00,,,0.00,Wunderground v.1.15,2013-05-06 16:26:00,
2013-05-06 12:31:00,56.7,50.6,30.08,SSW,200,1.0,1.0,80,0.00,,,0.00,Wunderground v.1.15,2013-05-06 16:31:00,
2013-05-06 12:37:00,56.7,50.3,30.08,South,189,1.0,1.0,79,0.00,,,0.00,Wunderground v.1.15,2013-05-06 16:37:00,
2013-05-06 12:46:00,56.6,49.8,30.07,SE,137,1.0,3.0,78,0.00,,,0.00,Wunderground v.1.15,2013-05-06 16:46:00,
2013-05-06 12:52:00,56.5,49.7,30.07,WSW,247,2.0,3.0,78,0.00,,,0.00,Wunderground v.1.15,2013-05-06 16:52:00,
2013-05-06 12:57:00,56.5,49.7,30.07,SW,220,1.0,8.0,78,0.00,,,0.00,Wunderground v.1.15,2013-05-06 16:57:00,
2013-05-06 13:02:00,56.7,50.3,30.07,SSW,210,1.0,1.0,79,0.00,,,0.00,Wunderground v.1.15,2013-05-06 17:02:00,
2013-05-06 13:08:00,57.0,50.5,30.07,WSW,253,1.0,1.0,79,0.00,,,0.00,Wunderground v.1.15,2013-05-06 17:08:00,
2013-05-06 13:17:00,58.0,51.2,30.06,SSW,208,1.0,1.0,78,0.00,,,0.00,Wunderground v.1.15,2013-05-06 17:17:00,
2013-05-06 13:25:00,58.9,51.3,30.06,SSW,203,1.0,3.0,76,0.00,,,0.00,Wunderground v.1.15,2013-05-06 17:25:00,
2013-05-06 13:31:00,59.5,51.6,30.06,SSW,205,1.0,8.0,75,0.00,,,0.00,Wunderground v.1.15,2013-05-06 17:31:00,
2013-05-06 13:36:00,59.9,51.2,30.06,SSW,196,1.0,8.0,73,0.00,,,0.00,Wunderground v.1.15,2013-05-06 17:36:00,
2013-05-06 13:41:00,60.4,51.3,30.06,WSW,240,1.0,1.0,72,0.00,,,0.00,Wunderground v.1.15,2013-05-06 17:41:00,
2013-05-06 13:47:00,60.5,51.4,30.05,WSW,254,1.0,3.0,72,0.00,,,0.00,Wunderground v.1.15,2013-05-06 17:47:00,
2013-05-06 13:52:00,60.7,52.0,30.05,SW,217,1.0,3.0,73,0.00,,,0.00,Wunderground v.1.15,2013-05-06 17:52:00,
2013-05-06 13:58:00,61.0,52.3,30.05,West,280,1.0,3.0,73,0.00,,,0.00,Wunderground v.1.15,2013-05-06 17:58:00,
2013-05-06 14:05:00,60.9,52.2,30.05,West,268,1.0,2.0,73,0.00,,,0.00,Wunderground v.1.15,2013-05-06 18:05:00,
2013-05-06 14:11:00,60.7,52.0,30.05,SW,226,2.0,2.0,73,0.00,,,0.00,Wunderground v.1.15,2013-05-06 18:11:00,
2013-05-06 14:18:00,60.4,52.4,30.05,WSW,244,2.0,5.0,75,0.00,,,0.00,Wunderground v.1.15,2013-05-06 18:18:00,
2013-05-06 14:25:00,60.5,52.2,30.05,SW,233,1.0,4.0,74,0.00,,,0.00,Wunderground v.1.15,2013-05-06 18:25:00,
2013-05-06 14:31:00,60.4,52.1,30.04,SW,222,2.0,2.0,74,0.00,,,0.00,Wunderground v.1.15,2013-05-06 18:31:00,
2013-05-06 14:37:00,60.5,52.2,30.04,WSW,241,1.0,3.0,74,0.00,,,0.00,Wunderground v.1.15,2013-05-06 18:37:00,
2013-05-06 14:42:00,60.5,52.2,30.04,SW,232,2.0,4.0,74,0.00,,,0.00,Wunderground v.1.15,2013-05-06 18:42:00,
2013-05-06 14:52:00,60.4,52.4,30.04,SW,219,2.0,3.0,75,0.00,,,0.00,Wunderground v.1.15,2013-05-06 18:52:00,
2013-05-06 14:57:00,60.5,52.5,30.04,WSW,241,2.0,6.0,75,0.00,,,0.00,Wunderground v.1.15,2013-05-06 18:57:00,
2013-05-06 15:02:00,60.9,52.6,30.03,West,267,2.0,2.0,74,0.00,,,0.00,Wunderground v.1.15,2013-05-06 19:02:00,
2013-05-06 15:08:00,60.9,52.6,30.03,WSW,239,1.0,3.0,74,0.00,,,0.00,Wunderground v.1.15,2013-05-06 19:08:00,
2013-05-06 15:16:00,61.0,52.7,30.02,West,268,2.0,6.0,74,0.00,,,0.00,Wunderground v.1.15,2013-05-06 19:16:00,
2013-05-06 15:22:00,60.9,52.6,30.02,WSW,250,2.0,2.0,74,0.00,,,0.00,Wunderground v.1.15,2013-05-06 19:22:00,
2013-05-06 15:27:00,60.9,52.6,30.02,South,188,2.0,2.0,74,0.00,,,0.00,Wunderground v.1.15,2013-05-06 19:27:00,
2013-05-06 15:37:00,60.7,52.7,30.02,West,275,2.0,3.0,75,0.00,,,0.00,Wunderground v.1.15,2013-05-06 19:37:00,
2013-05-06 15:42:00,60.5,52.5,30.02,South,179,1.0,6.0,75,0.00,,,0.00,Wunderground v.1.15,2013-05-06 19:42:00,
2013-05-06 15:48:00,60.5,52.5,30.02,SSW,200,2.0,6.0,75,0.00,,,0.00,Wunderground v.1.15,2013-05-06 19:48:00,
2013-05-06 15:55:00,60.7,52.4,30.02,WSW,246,2.0,4.0,74,0.00,,,0.00,Wunderground v.1.15,2013-05-06 19:55:00,
2013-05-06 16:00:00,60.7,52.4,30.01,SSW,192,2.0,2.0,74,0.00,,,0.00,Wunderground v.1.15,2013-05-06 20:00:00,
2013-05-06 16:08:00,60.7,53.1,30.01,WSW,244,1.0,2.0,76,0.00,,,0.00,Wunderground v.1.15,2013-05-06 20:08:00,
2013-05-06 16:16:00,60.7,53.4,30.00,WSW,243,1.0,3.0,77,0.00,,,0.00,Wunderground v.1.15,2013-05-06 20:16:00,
2013-05-06 16:21:00,60.5,53.3,30.00,SE,133,1.0,2.0,77,0.00,,,0.00,Wunderground v.1.15,2013-05-06 20:21:00,
2013-05-06 16:27:00,60.7,53.4,30.00,SSW,200,1.0,3.0,77,0.00,,,0.00,Wunderground v.1.15,2013-05-06 20:27:00,
2013-05-06 16:36:00,60.5,53.3,30.00,WSW,237,2.0,4.0,77,0.00,,,0.00,Wunderground v.1.15,2013-05-06 20:36:00,
2013-05-06 16:42:00,60.4,52.8,30.00,WSW,256,2.0,2.0,76,0.00,,,0.00,Wunderground v.1.15,2013-05-06 20:42:00,
2013-05-06 16:47:00,60.5,53.3,30.00,SW,216,1.0,2.0,77,0.00,,,0.00,Wunderground v.1.15,2013-05-06 20:47:00,
2013-05-06 16:52:00,60.7,53.4,30.00,SSW,212,1.0,1.0,77,0.00,,,0.00,Wunderground v.1.15,2013-05-06 20:52:00,
2013-05-06 16:58:00,60.7,53.4,30.00,SSW,210,1.0,3.0,77,0.00,,,0.00,Wunderground v.1.15,2013-05-06 20:58:00,
2013-05-06 17:08:00,61.5,54.2,30.00,WSW,239,1.0,3.0,77,0.00,,,0.00,Wunderground v.1.15,2013-05-06 21:08:00,
2013-05-06 17:16:00,61.5,54.6,30.00,SW,236,1.0,2.0,78,0.00,,,0.00,Wunderground v.1.15,2013-05-06 21:16:00,
2013-05-06 17:22:00,61.2,54.6,30.00,SW,236,1.0,1.0,79,0.00,,,0.00,Wunderground v.1.15,2013-05-06 21:22:00,
2013-05-06 17:28:00,60.9,54.3,30.00,WSW,239,0.0,1.0,79,0.00,,,0.00,Wunderground v.1.15,2013-05-06 21:28:00,
2013-05-06 17:36:00,60.5,54.0,30.00,SSW,200,0.0,2.0,79,0.00,,,0.00,Wunderground v.1.15,2013-05-06 21:36:00,
2013-05-06 17:41:00,60.4,53.9,30.00,SW,222,1.0,1.0,79,0.00,,,0.00,Wunderground v.1.15,2013-05-06 21:41:00,
2013-05-06 17:47:00,60.5,54.0,30.00,SSE,161,1.0,1.0,79,0.00,,,0.00,Wunderground v.1.15,2013-05-06 21:47:00,
2013-05-06 17:58:00,60.5,53.6,30.00,South,181,1.0,3.0,78,0.00,,,0.00,Wunderground v.1.15,2013-05-06 21:58:00,
2013-05-06 18:06:00,60.4,53.5,30.00,South,174,1.0,1.0,78,0.00,,,0.00,Wunderground v.1.15,2013-05-06 22:06:00,
2013-05-06 18:11:00,60.4,53.5,30.00,SW,226,1.0,1.0,78,0.00,,,0.00,Wunderground v.1.15,2013-05-06 22:11:00,
2013-05-06 18:16:00,60.4,53.5,30.00,SSW,199,1.0,2.0,78,0.00,,,0.00,Wunderground v.1.15,2013-05-06 22:16:00,
2013-05-06 18:21:00,60.2,53.3,30.00,SSW,192,1.0,2.0,78,0.00,,,0.00,Wunderground v.1.15,2013-05-06 22:21:00,
2013-05-06 18:27:00,60.1,53.6,30.00,SSW,196,1.0,6.0,79,0.00,,,0.00,Wunderground v.1.15,2013-05-06 22:27:00,
2013-05-06 18:32:00,60.1,53.6,29.99,SSW,213,1.0,2.0,79,0.00,,,0.00,Wunderground v.1.15,2013-05-06 22:32:00,
2013-05-06 18:38:00,60.1,53.6,29.99,SW,220,1.0,2.0,79,0.00,,,0.00,Wunderground v.1.15,2013-05-06 22:38:00,
2013-05-06 18:48:00,59.9,53.4,29.99,SSW,193,1.0,3.0,79,0.00,,,0.00,Wunderground v.1.15,2013-05-06 22:48:00,
2013-05-06 18:56:00,59.9,53.7,29.99,SSW,205,1.0,3.0,80,0.00,,,0.00,Wunderground v.1.15,2013-05-06 22:56:00,
2013-05-06 19:02:00,59.8,54.3,29.99,South,182,1.0,2.0,82,0.00,,,0.00,Wunderground v.1.15,2013-05-06 23:02:00,
2013-05-06 19:07:00,59.6,54.1,29.99,South,175,2.0,2.0,82,0.00,,,0.00,Wunderground v.1.15,2013-05-06 23:07:00,
2013-05-06 19:17:00,59.5,54.7,29.99,SSE,158,1.0,3.0,84,0.00,,,0.00,Wunderground v.1.15,2013-05-06 23:17:00,
2013-05-06 19:22:00,59.3,54.5,29.99,SSE,161,0.0,3.0,84,0.00,,,0.00,Wunderground v.1.15,2013-05-06 23:22:00,
2013-05-06 19:27:00,59.3,54.5,29.99,South,188,1.0,3.0,84,0.00,,,0.00,Wunderground v.1.15,2013-05-06 23:27:00,
2013-05-06 19:32:00,59.3,54.8,29.99,South,189,1.0,1.0,85,0.00,,,0.00,Wunderground v.1.15,2013-05-06 23:32:00,
2013-05-06 19:38:00,59.2,54.7,29.99,SSW,192,0.0,1.0,85,0.00,,,0.00,Wunderground v.1.15,2013-05-06 23:38:00,
2013-05-06 19:45:00,59.0,54.8,29.99,SSE,165,0.0,0.0,86,0.00,,,0.00,Wunderground v.1.15,2013-05-06 23:45:00,
2013-05-06 19:51:00,59.0,55.1,29.99,SSW,192,0.0,0.0,87,0.00,,,0.00,Wunderground v.1.15,2013-05-06 23:51:00,
2013-05-06 19:59:00,58.9,55.0,29.99,SSW,193,0.0,0.0,87,0.00,,,0.00,Wunderground v.1.15,2013-05-06 23:59:00,
2013-05-06 20:04:00,58.9,55.0,30.00,SSE,162,0.0,0.0,87,0.00,,,0.00,Wunderground v.1.15,2013-05-07 00:04:00,
2013-05-06 20:10:00,58.7,55.2,30.00,SW,216,0.0,0.0,88,0.00,,,0.00,Wunderground v.1.15,2013-05-07 00:10:00,
2013-05-06 20:16:00,58.7,55.2,30.00,South,184,0.0,2.0,88,0.00,,,0.00,Wunderground v.1.15,2013-05-07 00:16:00,
2013-05-06 20:21:00,58.6,55.1,30.00,SSE,162,0.0,0.0,88,0.00,,,0.00,Wunderground v.1.15,2013-05-07 00:21:00,
2013-05-06 20:29:00,58.6,55.4,30.00,South,176,1.0,1.0,89,0.00,,,0.00,Wunderground v.1.15,2013-05-07 00:29:00,
2013-05-06 20:36:00,58.6,55.4,30.00,South,176,0.0,1.0,89,0.00,,,0.00,Wunderground v.1.15,2013-05-07 00:36:00,
2013-05-06 20:41:00,58.6,55.4,30.00,South,176,0.0,0.0,89,0.00,,,0.00,Wunderground v.1.15,2013-05-07 00:41:00,
2013-05-06 20:47:00,58.6,55.4,30.01,SSW,195,0.0,0.0,89,0.00,,,0.00,Wunderground v.1.15,2013-05-07 00:47:00,
2013-05-06 20:57:00,58.6,55.7,30.01,SSW,195,0.0,0.0,90,0.00,,,0.00,Wunderground v.1.15,2013-05-07 00:57:00,
2013-05-06 21:04:00,58.6,55.7,30.01,SSW,195,0.0,0.0,90,0.00,,,0.00,Wunderground v.1.15,2013-05-07 01:04:00,
2013-05-06 21:10:00,58.6,55.7,30.01,SSW,195,0.0,0.0,90,0.00,,,0.00,Wunderground v.1.15,2013-05-07 01:10:00,
2013-05-06 21:16:00,58.6,55.7,30.01,SSW,195,0.0,0.0,90,0.00,,,0.00,Wunderground v.1.15,2013-05-07 01:16:00,
2013-05-06 21:21:00,58.6,55.7,30.01,SSW,195,0.0,0.0,90,0.00,,,0.00,Wunderground v.1.15,2013-05-07 01:21:00,
2013-05-06 21:26:00,58.6,55.7,30.01,SSW,195,0.0,0.0,90,0.00,,,0.00,Wunderground v.1.15,2013-05-07 01:26:00,
2013-05-06 21:31:00,58.6,55.7,30.01,South,186,0.0,0.0,90,0.00,,,0.00,Wunderground v.1.15,2013-05-07 01:31:00,
2013-05-06 21:36:00,58.4,55.5,30.01,SSW,209,0.0,2.0,90,0.00,,,0.00,Wunderground v.1.15,2013-05-07 01:36:00,
2013-05-06 21:42:00,58.4,55.5,30.01,SSW,200,1.0,3.0,90,15.16,,,0.20,Wunderground v.1.15,2013-05-07 01:42:00,
2013-05-06 21:48:00,58.4,55.5,30.02,SSW,210,1.0,3.0,90,0.47,,,0.63,Wunderground v.1.15,2013-05-07 01:48:00,
2013-05-06 21:56:00,58.4,55.5,30.02,WSW,243,0.0,2.0,90,15.16,,,1.19,Wunderground v.1.15,2013-05-07 01:56:00,
2013-05-06 22:01:00,58.4,55.5,30.02,SW,226,0.0,0.0,90,15.16,,,2.26,Wunderground v.1.15,2013-05-07 02:01:00,
2013-05-06 22:07:00,58.4,55.5,30.02,SW,229,0.0,0.0,90,15.16,,,3.69,Wunderground v.1.15,2013-05-07 02:07:00,
2013-05-06 22:23:00,58.3,55.4,30.02,SSE,162,0.0,1.0,90,14.40,,,7.50,Wunderground v.1.15,2013-05-07 02:23:00,
2013-05-06 22:29:00,58.3,55.4,30.02,South,181,0.0,1.0,90,15.16,,,8.93,Wunderground v.1.15,2013-05-07 02:29:00,
2013-05-06 22:37:00,58.3,55.4,30.02,SW,227,0.0,1.0,90,15.16,,,10.84,Wunderground v.1.15,2013-05-07 02:37:00,
2013-05-06 22:42:00,58.3,55.4,30.02,SSW,195,0.0,1.0,90,15.16,,,12.03,Wunderground v.1.15,2013-05-07 02:42:00,
2013-05-06 22:47:00,58.3,55.4,30.01,South,174,0.0,0.0,90,14.40,,,13.22,Wunderground v.1.15,2013-05-07 02:47:00,
2013-05-06 22:53:00,58.1,55.2,30.01,South,172,1.0,2.0,90,15.16,,,14.89,Wunderground v.1.15,2013-05-07 02:53:00,
2013-05-06 22:59:00,58.1,55.2,30.01,South,174,0.0,3.0,90,15.16,,,16.19,Wunderground v.1.15,2013-05-07 02:59:00,
2013-05-06 23:05:00,58.1,55.2,30.00,WSW,239,1.0,1.0,90,15.16,,,17.50,Wunderground v.1.15,2013-05-07 03:05:00,
2013-05-06 23:11:00,58.1,55.2,30.00,WSW,239,1.0,1.0,90,15.16,,,19.05,Wunderground v.1.15,2013-05-07 03:11:00,
2013-05-06 23:21:00,58.1,55.2,30.00,SW,220,0.0,0.0,90,15.16,,,21.31,Wunderground v.1.15,2013-05-07 03:21:00,
2013-05-06 23:32:00,58.1,55.2,30.00,SSW,200,0.0,0.0,90,0.15,,,22.95,Wunderground v.1.15,2013-05-07 03:32:00,
2013-05-06 23:37:00,58.1,55.2,30.00,South,175,1.0,1.0,90,0.07,,,22.95,Wunderground v.1.15,2013-05-07 03:37:00,
2013-05-06 23:48:00,58.1,55.2,29.99,SW,219,1.0,2.0,90,0.00,,,22.95,Wunderground v.1.15,2013-05-07 03:48:00,
2013-05-06 23:56:00,58.1,55.2,29.99,WSW,241,1.0,2.0,90,0.00,,,22.95,Wunderground v.1.15,2013-05-07 03:56:00,